GEFSMA_con_probscp_138.txt.gz
Probability
34 32 30 23 16 14 15 12 7 5 4 3 4 5 7 7 6 6 10 17 18 14 12 13 13 14 17 19 16 12 10 11 13 14 12 8 5 4 3 1 0 0 0
35 34 32 26 20 17 17 13 10 9 8 6 5 6 8 9 8 8 11 16 18 15 12 13 14 14 16 18 18 15 12 12 16 17 14 9 6 4 3 2 1 1 1
34 33 31 28 25 21 19 17 15 14 12 10 8 6 6 8 9 10 11 13 14 14 12 14 15 14 14 16 18 18 15 13 16 18 16 12 9 5 3 3 2 3 3
29 27 27 27 26 23 20 18 18 18 15 12 10 7 5 5 7 8 8 9 10 11 11 13 15 14 14 15 17 18 17 14 13 14 14 14 12 7 3 2 2 3 3
23 22 24 26 25 22 20 18 19 21 18 15 12 10 8 7 7 7 6 6 8 9 8 10 12 15 16 15 14 17 17 14 12 11 12 15 14 10 4 1 1 2 3
19 20 23 25 23 21 21 19 19 21 22 19 16 13 11 10 8 7 6 5 5 6 6 7 10 13 14 13 12 14 15 14 12 12 13 15 16 12 7 2 1 2 3
14 17 19 20 19 20 21 20 19 20 21 21 18 14 11 9 8 8 8 6 5 5 5 7 9 10 10 9 9 11 12 11 12 14 15 16 16 14 9 5 2 2 2
8 10 14 16 16 17 18 18 18 18 18 18 17 13 9 7 6 8 8 7 7 8 7 8 10 10 8 7 6 8 8 9 10 13 15 16 14 13 10 6 3 3 2
5 7 10 14 15 15 15 15 14 14 14 14 14 11 9 8 6 5 6 6 6 8 7 7 9 9 7 6 5 5 6 7 8 11 14 15 13 11 8 5 4 4 3
6 6 8 11 13 14 12 10 9 10 10 11 11 10 9 9 6 4 3 3 3 4 4 5 6 7 5 3 3 5 5 5 6 8 11 13 12 10 7 5 4 4 4
5 5 7 7 8 8 7 6 6 6 6 7 8 8 7 7 6 4 1 1 1 1 1 2 3 4 3 1 2 3 3 3 3 5 7 9 8 7 6 5 4 3 3
2 3 4 4 3 2 2 3 3 4 4 4 5 5 4 5 6 4 1 0 0 0 0 0 2 3 2 1 0 1 1 1 1 1 3 3 3 3 3 3 3 2 2
1 1 2 2 1 0 0 1 1 2 3 3 3 3 3 4 4 3 1 0 0 0 0 0 1 2 2 1 0 0 0 0 0 0 0 0 0 0 0 1 1 0 1
0 0 0 0 0 0 0 0 0 1 2 2 2 3 3 4 4 2 1 0 0 0 0 0 0 1 1 0 0 0 0 0 0 0 0 0 0 0 0 0 0 0 0
0 0 0 0 0 0 0 0 0 0 1 1 1 1 3 5 4 2 0 0 0 0 0 0 0 0 0 0 0 0 0 0 0 0 0 0 0 0 0 0 0 0 0
0 0 0 0 0 0 0 0 0 0 0 0 0 1 2 4 4 2 1 0 0 0 0 0 0 0 0 0 0 0 0 0 0 0 0 0 0 0 0 0 0 0 0
0 0 0 0 0 0 0 0 0 0 0 0 0 0 1 2 2 2 1 0 0 0 0 0 0 0 0 0 0 0 0 0 0 0 0 0 0 0 0 0 0 0 0
0 0 0 0 0 0 0 0 0 0 0 0 0 0 0 0 1 1 0 0 0 0 0 0 0 0 0 0 0 0 0 0 0 0 0 0 0 0 0 0 0 0 0
0 0 0 0 0 0 0 0 0 0 0 0 0 0 0 0 0 0 0 0 0 0 0 0 0 0 0 0 0 0 0 0 0 0 0 0 0 0 0 0 0 0 0
1 1 0 0 0 0 0 0 0 0 0 0 0 0 0 0 0 0 0 0 0 0 0 0 0 0 0 0 0 0 0 0 0 0 0 0 0 0 0 0 0 0 0
2 1 0 0 0 0 0 0 0 0 0 0 0 0 0 0 0 0 0 0 0 0 0 0 0 0 0 0 0 0 0 0 0 0 0 0 0 0 0 0 0 0 0
1 1 0 0 0 0 0 0 0 0 0 0 0 0 0 0 0 0 0 0 0 0 0 0 0 0 0 0 0 0 0 0 0 0 0 0 0 0 0 0 0 0 0
1 1 0 0 0 0 0 0 0 0 0 0 0 0 0 0 0 0 0 0 0 0 0 0 0 0 0 0 0 0 0 0 0 0 0 0 0 0 0 0 0 0 0
0 0 0 0 0 0 0 0 0 0 0 0 0 0 0 0 0 0 0 0 0 0 0 0 0 0 0 0 0 0 0 0 0 0 0 0 0 0 0 0 0 0 0
0 0 0 0 0 0 0 0 0 0 0 0 0 0 0 0 0 0 0 0 0 0 0 0 0 0 0 0 0 0 0 0 0 0 0 0 0 0 0 0 0 0 0
0 0 0 0 0 0 0 0 0 0 0 0 0 0 0 0 0 0 0 0 0 0 0 0 0 0 0 0 0 0 0 0 0 0 0 0 0 0 0 0 0 0 0

GEFSMA_con_probscp_144.txt.gz
Probability
0 1 2 2 4 4 4 4 4 2 1 1 1 0 0 0 0 0 1 4 9 11 12 10 9 10 12 11 8 6 6 6 4 3 2 1 0 0 0 0 1 1 1
1 1 2 2 3 3 4 4 3 2 1 0 0 0 0 0 0 0 1 3 7 10 11 9 8 8 9 10 10 8 7 6 6 5 4 3 1 0 0 0 0 0 0
0 1 1 1 1 3 3 3 3 2 0 0 0 0 1 1 0 0 1 3 5 7 8 8 8 8 8 9 10 10 9 9 8 8 7 5 3 1 1 0 0 0 0
0 0 0 0 1 2 3 3 3 2 1 0 1 1 1 0 0 0 0 2 3 4 5 6 8 9 9 7 7 8 9 10 11 10 9 7 5 3 1 0 0 0 0
0 0 0 0 1 1 1 2 3 1 1 1 1 2 1 0 0 0 0 0 1 3 3 4 6 7 6 5 5 6 7 8 9 9 9 8 6 4 2 0 0 0 0
0 0 0 1 2 2 1 1 1 1 0 0 1 1 0 0 0 0 0 0 1 2 3 3 3 3 3 4 5 5 5 5 5 5 5 5 6 6 3 1 0 0 0
0 0 1 2 3 2 1 0 0 0 0 0 0 0 0 0 0 0 0 0 0 1 2 2 1 1 1 2 4 5 5 3 2 1 1 2 3 5 5 3 1 0 0
1 1 1 2 3 2 1 0 0 0 0 0 0 0 0 0 0 0 0 0 0 0 1 1 1 0 0 1 2 3 4 3 1 0 0 0 1 3 4 4 3 1 1
0 0 0 1 1 2 1 0 0 0 0 0 0 1 0 0 0 0 0 0 0 0 0 0 0 0 0 0 1 2 3 3 2 1 0 0 0 1 2 3 3 3 2
0 0 0 0 1 2 1 0 0 0 0 0 1 1 1 0 0 0 0 0 0 0 0 0 0 0 0 0 0 1 1 2 1 1 1 0 1 2 2 2 3 3 4
0 0 0 0 0 1 1 0 0 0 0 0 1 2 2 1 0 0 0 0 0 0 0 0 0 0 0 0 0 0 0 0 0 0 0 0 1 2 2 1 2 3 4
0 0 0 0 0 0 0 0 0 0 0 0 1 2 2 1 0 0 0 0 0 0 0 0 0 0 0 0 0 0 0 0 0 0 0 0 0 1 2 2 1 2 3
0 0 0 0 0 0 0 0 0 0 0 0 0 1 1 1 0 0 0 0 0 0 0 0 0 0 0 0 0 0 0 0 0 0 0 0 0 0 1 1 1 1 2
0 0 0 0 0 0 0 0 0 0 0 0 0 0 0 0 0 0 0 0 0 0 0 0 0 0 0 0 0 0 0 0 0 0 0 0 0 0 0 0 0 0 1
0 0 0 0 0 0 0 0 0 0 0 0 0 0 0 0 0 0 0 0 0 0 0 0 0 0 0 0 0 0 0 0 0 0 0 0 0 0 0 0 0 0 0
0 0 0 0 0 0 0 0 0 0 0 0 0 0 0 0 0 0 0 0 0 0 0 0 0 0 0 0 0 0 0 0 0 0 0 0 0 0 0 0 0 0 0
0 0 0 0 0 0 0 0 0 0 0 0 0 0 0 0 0 0 0 0 0 0 0 0 0 0 0 0 0 0 0 0 0 0 0 0 0 0 0 0 0 0 0
0 0 0 0 0 0 0 0 0 0 0 0 0 0 0 0 0 0 0 0 0 0 0 0 0 0 0 0 0 0 0 0 0 0 0 0 0 0 0 0 0 0 0
0 0 0 0 0 0 0 0 0 0 0 0 0 0 0 0 0 0 0 0 0 0 0 0 0 0 0 0 0 0 0 0 0 0 0 0 0 0 0 0 0 0 0
0 0 0 0 0 0 0 0 0 0 0 0 0 0 0 0 0 0 0 0 0 0 0 0 0 0 0 0 0 0 0 0 0 0 0 0 0 0 0 0 0 0 0
0 0 0 0 0 0 0 0 0 0 0 0 0 0 0 0 0 0 0 0 0 0 0 0 0 0 0 0 0 0 0 0 0 0 0 0 0 0 0 0 0 0 0
0 0 0 0 0 0 0 0 0 0 0 0 0 0 0 0 0 0 0 0 0 0 0 0 0 0 0 0 0 0 0 0 0 0 0 0 0 0 0 0 0 0 0
0 0 0 0 0 0 0 0 0 0 0 0 0 0 0 0 0 0 0 0 0 0 0 0 0 0 0 0 0 0 0 0 0 0 0 0 0 0 0 0 0 0 0
0 0 0 0 0 0 0 0 0 0 0 0 0 0 0 0 0 0 0 0 0 0 0 0 0 0 0 0 0 0 0 0 0 0 0 0 0 0 0 0 0 0 0
0 0 0 0 0 0 0 0 0 0 0 0 0 0 0 0 0 0 0 0 0 0 0 0 0 0 0 0 0 0 0 0 0 0 0 0 0 0 0 0 0 0 0
0 0 0 0 0 0 0 0 0 0 0 0 0 0 0 0 0 0 0 0 0 0 0 0 0 0 0 0 0 0 0 0 0 0 0 0 0 0 0 0 0 0 0

GEFSMA_con_probscp_150.txt.gz
Probability
2 1 2 2 3 5 4 1 1 2 5 7 7 5 3 2 2 3 3 3 2 3 4 6 7 7 5 4 3 3 3 2 1 0 0 0 0 0 0 0 0 0 0
1 2 2 3 4 5 4 2 1 1 3 4 5 5 4 4 4 3 3 4 4 5 6 6 6 7 6 5 4 3 3 3 3 1 1 1 0 0 0 0 0 0 0
1 2 3 3 3 4 4 2 1 0 2 3 3 3 3 3 3 3 3 4 5 5 5 5 5 6 7 6 4 2 1 2 3 2 2 1 1 0 0 0 0 0 0
1 2 2 2 3 3 3 2 1 1 2 2 1 1 1 1 1 2 3 4 5 3 2 3 4 6 6 5 3 2 1 1 1 1 1 1 1 1 0 0 0 0 1
1 1 1 1 2 2 2 1 0 1 1 1 0 0 0 0 1 2 3 3 3 1 0 1 3 4 4 3 2 3 3 3 1 1 1 1 2 1 0 0 0 0 1
1 0 0 0 1 1 1 0 0 0 0 0 0 0 0 0 0 1 1 1 1 1 0 0 1 2 1 1 1 2 3 4 3 3 2 3 3 2 0 0 0 0 1
0 0 0 0 0 0 0 0 0 0 0 0 0 0 0 0 0 0 0 0 1 1 1 0 0 0 0 0 0 0 2 3 4 4 3 3 3 2 0 0 0 0 0
0 0 0 0 0 0 0 0 0 0 0 0 0 0 0 0 0 0 0 0 1 1 1 0 0 0 0 0 0 0 2 3 4 3 3 3 3 2 1 0 0 0 0
0 0 0 0 0 0 0 0 0 0 0 0 0 0 0 0 0 0 0 0 0 0 0 0 0 0 0 0 0 1 2 3 2 2 2 2 4 4 3 1 0 0 0
0 0 0 0 0 0 0 0 0 0 0 0 0 1 1 1 0 0 0 0 0 0 0 0 0 0 0 0 0 0 1 1 1 1 0 1 3 5 4 3 1 0 0
0 0 0 0 0 0 0 0 0 0 0 0 0 1 2 1 0 0 0 0 0 0 0 0 0 0 0 0 0 0 0 0 0 0 0 0 2 3 4 3 2 1 0
0 0 0 0 0 0 0 0 0 0 0 0 0 1 1 1 0 0 1 0 0 0 0 0 0 0 0 0 0 0 0 0 0 0 0 0 0 1 2 2 2 1 0
0 0 0 0 0 0 0 0 0 0 0 0 0 0 0 0 0 0 0 0 0 0 0 0 0 0 0 0 0 0 0 0 0 0 0 0 0 0 1 1 1 0 0
0 0 0 0 0 0 0 0 0 0 0 0 0 0 0 0 0 0 0 0 0 0 0 0 0 0 0 0 0 0 0 0 0 0 0 0 0 0 0 0 0 0 0
0 0 0 0 0 0 0 0 0 0 0 0 0 0 0 0 0 0 0 0 0 0 0 0 0 0 0 0 0 0 0 0 0 0 0 0 0 0 0 0 0 0 0
0 0 0 0 0 0 0 0 0 0 0 0 0 0 0 0 0 0 0 0 0 0 0 0 0 0 0 0 0 0 0 0 0 0 0 0 0 0 0 0 0 0 0
0 0 0 0 0 0 0 0 0 0 0 0 0 0 0 0 0 0 0 0 0 0 0 0 0 0 0 0 0 0 0 0 0 0 0 0 0 0 0 0 0 0 0
0 0 0 0 0 0 0 0 0 0 0 0 0 0 0 0 0 0 0 0 0 0 0 0 0 0 0 0 0 0 0 0 0 0 0 0 0 0 0 0 0 0 0
0 0 0 0 0 0 0 0 0 0 0 0 0 0 0 0 0 0 0 0 0 0 0 0 0 0 0 0 0 0 0 0 0 0 0 0 0 0 0 0 0 0 0
0 0 0 0 0 0 0 0 0 0 0 0 0 0 0 0 0 0 0 0 0 0 0 0 0 0 0 0 0 0 0 0 0 0 0 0 0 0 0 0 0 0 0
0 0 0 0 0 0 0 0 0 0 0 0 0 0 0 0 0 0 0 0 0 0 0 0 0 0 0 0 0 0 0 0 0 0 0 0 0 0 0 0 0 0 0
0 0 0 0 0 0 0 0 0 0 0 0 0 0 0 0 0 0 0 0 0 0 0 0 0 0 0 0 0 0 0 0 0 0 0 0 0 0 0 0 0 0 0
0 0 0 0 0 0 0 0 0 0 0 0 0 0 0 0 0 0 0 0 0 0 0 0 0 0 0 0 0 0 0 0 0 0 0 0 0 0 0 0 0 0 0
0 0 0 0 0 0 0 0 0 0 0 0 0 0 0 0 0 0 0 0 0 0 0 0 0 0 0 0 0 0 0 0 0 0 0 0 0 0 0 0 0 0 0
0 0 0 0 0 0 0 0 0 0 0 0 0 0 0 0 0 0 0 0 0 0 0 0 0 0 0 0 0 0 0 0 0 0 0 0 0 0 0 0 0 0 0
0 0 0 0 0 0 0 0 0 0 0 0 0 0 0 0 0 0 0 0 0 0 0 0 0 0 0 0 0 0 0 0 0 0 0 0 0 0 0 0 0 0 0

GEFSMA_con_probscp_156.txt.gz
Probability
18 18 19 19 18 20 21 18 15 14 15 12 10 8 5 4 4 7 13 17 16 15 13 11 10 8 7 6 5 5 6 6 5 4 2 1 0 0 0 0 0 0 0
16 16 16 17 18 20 20 18 15 15 16 15 12 10 8 8 7 9 12 13 13 14 13 13 11 9 9 8 5 3 4 5 5 5 3 1 0 0 1 1 0 0 0
13 13 15 16 17 17 18 18 17 16 17 15 14 15 15 13 12 11 11 10 10 11 13 13 13 13 14 13 8 5 4 4 4 4 3 1 0 0 1 1 0 0 0
11 12 14 16 15 14 15 17 17 18 18 16 17 19 18 15 12 11 11 10 10 11 13 14 14 13 15 15 12 9 6 4 4 4 3 2 1 0 1 1 0 0 0
9 10 13 14 14 13 14 17 20 21 21 18 16 15 14 12 11 9 9 10 11 11 13 14 13 11 12 15 15 11 7 5 6 5 4 3 1 1 0 0 0 0 0
7 8 11 13 13 13 14 18 21 22 21 17 11 8 8 8 9 9 9 9 10 9 11 13 13 10 10 13 12 9 6 5 6 5 4 3 3 2 1 0 0 0 0
4 6 8 11 11 10 11 14 18 18 17 13 8 5 5 6 9 11 11 10 9 8 9 12 13 10 8 7 6 5 5 4 4 3 2 2 2 2 2 1 1 0 0
3 4 6 8 7 6 7 10 13 13 11 9 7 5 5 7 11 12 11 10 9 8 8 10 11 8 5 4 4 4 4 3 3 3 2 1 1 1 2 2 2 1 0
4 4 4 5 5 5 7 9 11 10 8 7 7 6 6 8 12 13 10 9 9 8 7 8 8 7 4 3 4 3 2 2 3 4 2 0 0 1 1 2 3 3 2
4 3 3 4 5 6 6 7 8 7 7 7 7 6 6 9 12 13 11 9 9 9 8 6 6 5 3 3 3 2 1 1 2 3 2 0 0 1 1 1 2 3 3
6 4 3 3 4 4 5 5 5 6 7 8 8 7 7 8 10 13 12 10 9 9 8 6 5 4 2 1 1 1 0 0 0 1 0 0 0 0 0 0 1 1 2
9 6 4 5 4 4 3 3 4 5 6 7 8 8 7 6 7 10 11 9 7 6 6 5 4 3 2 1 0 0 0 0 0 0 0 0 0 0 0 0 0 0 0
12 9 6 6 6 5 3 3 5 6 6 6 6 7 7 6 5 7 8 7 5 4 3 2 2 3 2 0 0 0 0 0 0 0 0 0 0 0 0 0 0 0 0
11 8 6 6 6 5 2 2 4 6 6 5 5 6 6 6 6 6 6 5 4 3 2 1 1 2 2 1 0 0 0 0 0 0 0 0 0 0 0 0 0 0 0
6 4 3 4 4 3 2 1 2 4 5 4 4 5 6 6 5 4 3 2 2 2 1 0 0 1 2 1 0 0 0 0 0 0 0 0 0 0 0 0 0 0 0
1 1 1 2 2 2 1 1 1 2 3 3 3 4 4 4 2 1 1 0 1 1 1 0 0 0 1 1 0 0 0 0 0 0 0 0 0 0 0 0 0 0 0
0 0 0 1 1 1 1 0 0 0 1 2 2 3 3 2 1 0 0 0 0 0 0 0 0 0 0 0 0 0 0 0 0 0 0 0 0 0 0 0 0 0 0
0 0 0 0 0 0 0 0 0 0 0 1 1 1 2 1 0 0 0 0 0 0 0 0 0 0 0 0 0 0 0 0 0 0 0 0 0 0 0 0 0 0 0
0 0 0 0 0 0 0 0 0 0 0 0 0 0 0 0 0 0 0 0 0 0 0 0 0 0 0 0 0 0 0 0 0 0 0 0 0 0 0 0 0 0 0
0 0 0 0 0 0 0 0 0 0 0 0 0 0 0 0 0 0 0 0 0 0 0 0 0 0 0 0 0 0 0 0 0 0 0 0 0 0 0 0 0 0 0
0 0 0 0 0 0 0 0 0 0 0 0 0 0 0 0 0 0 0 0 0 0 0 0 0 0 0 0 0 0 0 0 0 0 0 0 0 0 0 0 0 0 0
0 0 0 0 0 0 0 0 0 0 0 0 0 0 0 0 0 0 0 0 0 0 0 0 0 0 0 0 0 0 0 0 0 0 0 0 0 0 0 0 0 0 0
0 0 0 0 0 0 0 0 0 0 1 0 0 0 0 0 0 0 0 0 0 0 0 0 0 0 0 0 0 0 0 0 0 0 0 0 0 0 0 0 0 0 0
0 0 0 0 0 0 0 0 0 0 0 0 0 0 0 0 0 0 0 0 0 0 0 0 0 0 0 0 0 0 0 0 0 0 0 0 0 0 0 0 0 0 0
0 0 0 0 0 0 0 0 0 0 0 0 0 0 0 0 0 0 0 0 0 0 0 0 0 0 0 0 0 0 0 0 0 0 0 0 0 0 0 0 0 0 0
0 0 0 0 1 1 1 0 0 0 0 0 0 0 0 0 0 0 0 0 0 0 0 0 0 0 0 0 0 0 0 0 0 0 0 0 0 0 0 0 0 0 0

GEFSMA_con_probscp_162.txt.gz
Probability
25 24 27 29 25 19 17 19 21 22 24 23 19 14 13 14 15 16 17 20 21 22 22 19 15 12 12 14 16 14 12 12 11 8 4 3 2 1 0 0 0 0 0
25 24 26 29 27 21 21 23 23 24 25 24 20 17 15 14 15 18 18 16 17 19 20 18 15 13 13 15 16 16 15 14 12 9 7 4 3 3 1 0 0 0 0
24 23 24 28 29 25 24 24 24 24 24 23 21 19 17 16 19 21 18 13 13 16 19 18 17 17 16 17 17 17 18 16 13 10 7 5 4 4 3 1 1 0 0
23 20 21 26 29 28 24 22 22 23 22 22 22 20 19 19 20 19 15 11 10 14 18 19 21 21 20 19 18 17 17 15 13 11 9 7 6 5 4 3 2 1 0
20 18 18 22 26 27 24 21 23 25 24 22 20 17 16 16 16 14 12 9 9 12 15 17 20 20 19 18 18 17 15 13 13 13 12 10 10 9 6 4 3 1 0
20 19 18 20 24 25 22 20 23 26 26 23 15 10 9 10 11 12 12 10 10 11 13 15 16 16 15 15 16 17 15 12 11 11 11 10 11 10 7 4 3 2 1
24 22 21 22 24 24 21 19 20 23 25 22 15 8 5 6 9 13 14 13 11 11 12 14 15 13 12 12 13 14 13 10 8 8 7 7 8 8 5 3 3 2 1
27 24 24 25 24 25 24 19 18 20 21 19 16 9 5 6 9 12 14 13 11 11 13 14 15 14 12 10 9 9 8 7 7 7 5 4 5 4 3 2 2 2 2
25 25 25 24 23 26 25 20 16 16 16 16 15 11 7 7 9 12 12 11 11 12 13 14 15 14 13 10 7 5 4 5 6 6 5 4 4 3 3 2 1 1 2
23 23 23 23 22 23 21 17 13 12 12 12 13 11 9 9 9 9 9 9 10 10 12 13 13 12 11 10 7 3 2 2 3 4 4 4 3 3 3 3 1 0 1
22 22 21 21 21 19 16 15 13 11 10 9 10 10 9 9 9 7 6 7 9 9 9 11 11 9 8 8 6 3 1 0 1 2 3 3 3 3 3 3 2 1 0
20 18 17 18 18 17 15 15 13 10 8 8 8 8 7 6 7 6 4 5 7 8 8 9 8 7 5 4 3 1 0 0 0 1 1 2 2 3 3 3 2 1 0
15 14 13 14 14 13 13 13 11 7 5 5 6 5 4 4 4 4 3 4 6 8 8 7 6 5 3 1 1 0 0 0 0 0 0 1 1 1 2 3 2 1 0
11 10 10 11 11 9 9 10 9 6 4 4 4 4 4 3 3 3 3 3 5 6 7 6 4 2 1 0 0 0 0 0 0 0 0 0 0 1 1 1 1 0 0
8 7 7 7 7 6 6 8 8 7 6 5 4 4 4 3 3 2 3 3 3 3 3 3 2 1 0 0 0 0 0 0 0 0 0 0 0 0 0 0 0 0 0
6 5 4 4 4 4 5 6 7 6 5 5 4 3 3 2 1 1 1 2 2 1 0 1 1 0 0 0 0 0 0 0 0 0 0 0 0 0 0 0 0 0 0
5 4 3 3 3 3 3 4 5 4 3 2 2 1 1 1 0 0 0 1 1 0 0 0 0 0 0 0 0 0 0 0 0 0 0 0 0 0 0 0 0 0 0
4 3 3 3 3 1 1 1 2 2 1 0 0 0 0 0 0 0 0 0 0 0 0 0 0 0 0 0 0 0 0 0 0 0 0 0 0 0 0 0 0 0 0
4 4 3 3 2 1 0 0 0 0 0 0 0 0 1 1 0 0 0 0 0 0 0 0 0 0 0 0 0 0 0 0 0 0 0 0 0 0 0 0 0 0 0
5 4 4 3 1 0 0 0 0 0 0 0 0 0 1 1 0 0 1 0 0 0 0 0 0 0 0 0 0 0 0 0 0 0 0 0 0 0 0 0 0 0 0
4 4 3 2 1 0 0 0 0 0 0 0 0 0 1 1 0 0 0 0 0 0 0 0 0 0 0 0 0 0 0 0 0 0 0 0 0 0 0 0 0 0 0
2 2 2 1 1 0 0 0 0 0 1 1 0 0 0 0 0 0 0 0 0 0 0 0 0 0 0 0 0 0 0 0 0 0 0 0 0 0 0 0 0 0 0
1 1 2 2 2 1 0 0 0 1 2 1 0 0 0 0 0 0 0 0 0 0 0 0 0 0 0 0 0 0 0 0 0 0 0 0 0 0 0 0 0 0 0
0 0 1 2 3 2 1 0 0 1 1 1 0 0 0 0 0 0 0 0 0 0 0 0 0 0 0 0 0 0 0 0 0 0 0 0 0 0 0 0 0 0 0
1 0 0 1 2 2 1 0 0 0 0 0 0 0 0 0 0 0 0 0 0 0 0 0 0 0 0 0 0 0 0 0 0 0 0 0 0 0 0 0 0 0 0
1 1 0 0 1 1 0 0 0 0 0 0 0 0 0 0 0 0 0 0 0 0 0 0 0 0 0 0 0 0 0 0 0 0 0 0 0 0 0 0 0 0 0

GEFSMA_con_probscp_168.txt.gz
Probability
3 1 1 3 4 2 1 2 3 3 3 3 2 2 2 1 0 0 1 5 9 11 10 9 9 6 5 7 10 10 9 10 12 12 10 7 5 5 5 4 1 0 0
4 3 2 3 3 1 0 1 2 2 3 3 3 3 3 2 0 0 1 3 6 9 10 10 9 7 6 7 8 10 10 10 11 12 11 8 6 6 6 4 2 1 0
8 7 5 4 3 1 0 0 1 1 1 2 2 2 2 1 0 0 0 1 3 6 9 10 10 8 6 7 8 10 12 12 12 11 11 10 8 7 6 4 3 2 1
12 11 9 6 4 2 1 1 1 0 0 1 1 1 1 0 0 0 0 0 1 3 5 7 9 8 6 7 9 10 11 12 12 11 11 9 8 7 7 5 3 3 3
14 13 10 7 5 4 3 2 2 1 0 0 0 0 0 0 0 0 0 0 0 1 2 3 6 5 5 7 10 11 10 10 12 12 11 10 8 8 7 6 4 4 4
14 13 11 8 7 6 4 3 3 2 0 0 0 0 0 0 0 0 0 0 0 0 0 1 2 2 3 7 10 10 8 7 10 12 10 9 9 9 9 7 5 4 3
14 14 12 9 8 7 4 3 3 1 0 0 0 0 0 0 0 0 0 0 0 0 0 0 1 1 2 5 7 7 6 6 8 9 8 6 6 7 8 7 4 2 2
14 13 12 10 8 6 4 3 2 1 0 0 0 0 0 0 0 1 0 0 0 0 0 1 2 2 3 3 3 3 5 7 9 9 7 4 3 4 5 6 4 2 1
13 12 11 9 7 6 4 2 1 1 1 1 0 0 0 0 0 0 0 0 0 0 0 1 3 3 3 1 0 1 3 7 10 10 8 5 3 3 4 5 5 4 2
12 11 10 9 7 5 3 2 2 2 2 2 1 0 0 0 0 0 0 0 0 0 1 2 3 3 2 1 0 0 2 5 8 9 8 6 3 2 3 4 5 4 3
11 11 10 8 6 5 4 3 3 3 3 2 1 0 0 0 0 0 0 0 0 0 1 2 3 3 2 1 0 0 1 2 3 5 5 5 3 2 2 3 3 3 3
9 8 7 5 4 5 4 3 2 2 1 1 0 0 0 0 0 0 0 0 0 0 1 2 3 3 2 1 0 0 0 0 1 1 2 2 2 2 1 1 1 3 3
4 4 3 2 1 2 2 1 1 1 0 0 0 0 0 0 0 0 0 0 0 0 0 1 1 2 2 1 0 0 0 0 0 0 0 0 1 1 0 0 1 2 3
1 1 1 0 0 0 0 0 0 0 0 0 0 0 0 0 0 0 0 0 0 0 0 0 0 1 1 1 0 0 0 0 0 0 0 0 0 0 0 0 1 1 1
1 0 0 0 0 0 0 0 0 0 0 0 0 0 0 0 0 0 0 0 0 0 0 0 0 0 0 0 0 0 0 0 0 0 0 0 0 0 0 0 0 0 0
2 1 0 0 0 0 0 0 0 0 0 0 0 0 0 0 0 0 0 0 0 0 0 0 0 0 0 0 0 0 0 0 0 0 0 0 0 0 0 0 0 0 0
2 1 0 0 0 0 0 0 0 0 0 0 0 0 0 0 0 0 0 0 0 0 0 0 0 0 0 0 0 0 0 0 0 0 0 0 0 0 0 0 0 0 0
2 1 0 0 0 0 0 0 0 0 0 0 0 0 0 0 0 0 0 0 0 0 0 0 0 0 0 0 0 0 0 0 0 0 0 0 0 0 0 0 0 0 0
1 1 1 1 0 0 0 0 0 0 0 0 0 0 0 0 0 0 0 0 0 0 0 0 0 0 0 0 0 0 0 0 0 0 0 0 0 0 0 0 0 0 0
0 0 1 1 0 0 0 0 0 0 0 0 0 0 0 0 0 0 0 0 0 0 0 0 0 0 0 0 0 0 0 0 0 0 0 0 0 0 0 0 0 0 0
0 0 0 0 0 0 0 0 0 0 0 0 0 0 0 0 0 0 0 0 0 0 0 0 0 0 0 0 0 0 0 0 0 0 0 0 0 0 0 0 0 0 0
0 0 0 0 0 0 0 0 0 0 0 0 0 0 0 0 0 0 0 0 0 0 0 0 0 0 0 0 0 0 0 0 0 0 0 0 0 0 0 0 0 0 0
0 0 0 0 0 0 0 0 0 0 0 0 0 0 0 0 0 0 0 0 0 0 0 0 0 0 0 0 0 0 0 0 0 0 0 0 0 0 0 0 0 0 0
0 0 0 0 0 0 0 0 0 0 0 0 0 0 0 0 0 0 0 0 0 0 0 0 0 0 0 0 0 0 0 0 0 0 0 0 0 0 0 0 0 0 0
0 0 0 0 0 0 0 0 0 0 0 0 0 0 0 0 0 0 0 0 0 0 0 0 0 0 0 0 0 0 0 0 0 0 0 0 0 0 0 0 0 0 0
0 0 0 0 0 0 0 0 0 0 0 0 0 0 0 0 0 0 0 0 0 0 0 0 0 0 0 0 0 0 0 0 0 0 0 0 0 0 0 0 0 0 0

GEFSMA_con_probscp_174.txt.gz
Probability
5 4 2 2 3 4 5 6 5 3 1 2 3 3 3 3 3 3 2 1 1 3 5 7 8 9 9 10 11 10 7 4 3 4 5 5 4 2 1 2 2 2 1
5 4 2 2 3 3 4 5 4 2 1 1 3 3 3 3 3 3 2 0 1 3 5 6 7 8 8 9 9 9 7 4 3 4 5 5 4 3 3 3 3 3 2
6 4 3 3 3 3 3 3 2 1 1 1 2 3 3 3 3 2 1 0 0 2 3 4 6 8 10 10 10 8 7 4 4 4 4 4 4 4 4 4 4 3 2
7 5 4 3 3 4 4 3 1 0 0 0 1 2 2 2 1 1 1 0 0 0 1 2 5 9 12 13 10 8 6 4 4 4 3 2 3 3 2 3 3 2 1
8 8 7 6 6 6 6 3 1 0 0 0 0 1 1 1 0 0 0 0 0 0 1 2 4 8 10 10 8 5 4 4 3 3 2 1 2 2 2 2 2 2 1
9 9 10 10 10 8 7 4 2 1 0 0 0 0 0 0 0 0 0 0 0 0 1 2 4 5 6 6 4 2 2 3 3 2 1 2 4 4 3 2 2 2 3
7 8 9 10 10 8 6 5 3 2 1 0 0 0 0 0 0 0 0 0 0 0 1 2 3 3 3 3 3 2 2 2 2 2 2 4 5 5 4 2 1 2 3
5 5 6 6 6 5 5 5 4 2 1 0 0 0 0 0 0 0 0 0 0 0 0 1 1 1 1 2 3 4 3 1 1 3 4 5 5 4 3 2 2 2 3
3 3 3 3 3 3 4 4 3 2 1 0 0 0 0 0 0 0 0 0 0 0 0 0 0 0 0 1 3 3 3 1 2 3 5 5 4 4 4 3 2 2 3
2 2 2 2 3 3 3 3 3 1 0 0 0 0 0 0 0 0 0 0 0 0 0 0 0 0 1 2 2 3 2 1 1 3 5 6 6 5 5 3 2 2 3
2 1 2 3 3 3 3 3 2 1 0 1 0 0 0 0 0 0 0 0 0 0 0 0 0 0 1 2 3 2 2 1 1 3 4 5 6 6 5 3 2 2 2
1 1 3 4 4 4 3 2 1 0 0 0 0 0 0 0 0 0 0 0 0 0 0 0 0 0 1 2 3 1 1 0 1 2 3 3 3 4 4 3 1 1 1
0 1 3 4 4 5 4 3 2 1 0 0 0 0 0 0 0 0 0 0 0 0 0 0 0 0 1 2 2 1 0 0 0 1 2 2 1 2 3 3 1 0 0
1 2 2 3 3 4 4 3 2 1 0 0 0 0 0 0 0 0 0 0 0 0 0 0 0 0 0 1 1 1 0 0 0 0 1 1 0 1 3 2 1 0 0
1 1 1 1 2 2 2 2 1 1 0 0 0 0 0 0 0 0 0 0 0 1 1 0 0 0 0 0 0 1 1 0 0 0 0 0 0 1 2 2 1 0 0
1 1 0 0 1 1 1 1 0 0 0 0 0 0 0 0 0 0 0 0 0 1 1 0 0 0 0 0 0 0 0 0 0 0 0 0 0 0 1 1 0 0 0
1 1 0 0 0 0 0 0 0 0 0 0 0 0 0 0 0 0 0 0 0 1 1 0 0 0 0 0 0 0 0 0 0 0 0 0 0 0 0 0 0 0 0
0 0 0 0 0 0 0 0 0 0 0 0 0 0 0 0 0 0 0 0 0 0 0 0 0 0 0 0 0 0 0 0 0 0 0 0 0 0 0 0 0 0 0
0 0 0 0 0 0 0 0 0 0 0 0 0 0 0 0 0 0 0 0 0 0 0 0 0 0 0 0 0 0 0 0 0 0 0 0 0 0 0 0 0 0 0
0 0 0 0 0 0 0 0 0 0 0 0 0 0 0 0 0 0 0 0 0 0 0 0 0 0 0 0 0 0 0 0 0 0 0 0 0 0 0 0 0 0 0
0 0 0 0 0 0 0 0 0 0 0 0 0 0 0 0 0 0 0 0 0 0 0 0 0 0 0 0 0 0 0 0 0 0 0 0 0 0 0 0 0 0 0
0 0 0 0 0 0 0 0 0 0 0 0 0 0 0 0 0 0 0 0 0 0 0 0 0 0 0 0 0 0 0 0 0 0 0 0 0 0 0 0 0 0 0
0 0 0 0 0 0 0 0 0 0 0 0 0 0 0 0 0 0 0 0 0 0 0 0 0 0 0 0 0 0 0 0 0 0 0 0 0 0 0 0 0 0 0
0 0 0 0 0 0 0 0 0 0 0 0 0 0 0 0 0 0 0 0 0 0 0 0 0 0 0 0 0 0 0 0 0 0 0 0 0 0 0 0 0 0 0
0 0 0 0 0 0 0 0 0 0 0 0 0 0 0 0 0 0 0 0 0 0 0 0 0 0 0 0 0 0 0 0 0 0 0 0 0 0 0 0 0 0 0
0 0 0 0 0 0 0 0 0 0 0 0 0 0 0 0 0 0 0 0 0 0 0 0 0 0 0 0 0 0 0 0 0 0 0 0 0 0 0 0 0 0 0

GEFSMA_con_probscp_180.txt.gz
Probability
24 21 19 17 14 13 15 16 15 15 14 11 9 9 9 9 8 8 10 10 7 5 6 8 9 11 12 12 12 13 15 17 14 12 10 7 5 4 3 4 3 1 0
22 21 19 18 17 17 19 20 18 19 18 15 12 10 10 10 9 9 12 12 9 6 7 9 10 11 12 12 13 15 15 16 15 12 10 7 5 4 3 3 3 1 0
22 22 20 22 24 25 27 26 23 24 23 21 19 16 14 13 12 11 12 13 11 7 8 12 14 13 12 12 15 17 18 18 16 12 9 8 6 4 3 3 3 2 1
22 22 22 25 30 31 30 29 27 26 27 28 26 23 21 18 15 12 11 13 14 11 10 13 15 12 10 10 12 15 18 19 16 12 9 8 8 5 3 3 3 3 3
19 20 21 24 29 31 30 28 28 28 28 27 24 22 22 19 16 12 10 12 15 13 9 10 11 9 7 7 9 11 14 16 15 12 9 9 8 5 2 1 2 2 2
14 15 18 20 23 25 26 26 26 25 24 22 16 15 17 16 15 13 10 9 10 9 8 9 9 8 7 7 8 9 10 11 12 11 11 11 9 5 3 2 1 1 1
10 12 14 15 17 18 19 19 20 19 20 21 17 13 12 12 11 12 10 7 6 6 8 10 11 11 10 9 8 7 8 8 8 8 10 12 10 7 5 4 2 1 1
9 9 11 12 12 13 13 14 15 15 18 22 22 17 11 8 9 9 9 7 7 9 11 13 13 12 12 11 9 7 6 5 3 3 6 8 9 9 8 6 3 2 2
8 8 9 10 10 10 11 12 13 13 16 20 22 19 13 11 9 8 8 9 10 13 15 14 13 12 11 11 10 6 4 2 1 2 4 6 6 8 10 8 5 4 4
5 6 7 8 9 9 11 11 10 10 13 16 16 16 16 15 12 9 8 8 10 13 14 12 12 12 11 11 8 4 1 0 1 3 5 6 6 7 9 7 5 5 6
4 4 5 6 7 8 8 9 9 10 11 12 12 13 15 15 12 9 7 6 8 10 10 10 10 11 11 10 7 3 0 0 0 2 4 5 6 7 7 6 5 5 6
5 4 4 5 6 7 7 7 9 10 10 10 11 13 13 11 9 8 7 6 6 6 7 8 8 8 8 8 6 3 1 0 0 1 2 3 4 5 6 6 6 6 6
6 5 5 5 6 6 6 7 8 9 10 10 11 11 11 9 7 6 6 6 6 4 5 6 7 7 7 6 4 2 1 0 0 0 1 1 2 2 4 5 5 6 6
6 6 6 6 6 6 7 8 8 9 10 10 10 10 10 8 6 5 6 7 7 5 5 6 7 6 6 5 3 1 0 0 0 0 0 0 0 1 2 3 4 4 4
4 4 5 6 6 6 7 9 9 9 11 10 9 8 8 6 5 5 6 7 7 7 6 7 6 6 5 3 2 1 0 0 0 0 0 0 0 0 1 2 2 2 1
3 3 2 3 4 5 5 7 7 8 8 7 5 4 4 3 3 4 5 5 6 7 7 5 4 4 3 2 1 2 1 1 1 0 0 0 0 0 0 1 1 0 0
3 2 1 1 1 2 2 2 3 3 3 2 1 1 1 1 1 3 4 4 4 6 5 3 2 1 1 1 1 2 2 2 2 1 0 0 0 0 0 0 0 0 0
3 2 1 0 0 0 0 0 0 0 0 0 0 0 0 0 1 2 2 3 3 4 4 2 1 0 0 0 0 1 1 1 2 1 0 0 0 0 0 0 0 0 0
2 2 1 1 0 0 0 0 0 0 0 0 0 0 0 0 0 1 1 1 2 3 3 2 1 0 0 0 0 0 0 0 0 0 0 0 0 0 0 0 0 0 0
1 2 2 2 1 0 0 0 0 0 0 0 0 0 0 0 0 0 0 0 1 1 1 1 0 0 0 0 0 0 0 0 0 0 0 0 0 0 0 0 0 0 0
1 2 2 2 1 0 0 0 0 0 0 0 0 0 0 0 0 0 0 0 0 0 0 0 0 0 0 0 0 1 0 0 0 0 0 0 0 0 0 0 0 0 0
2 1 1 1 1 0 0 0 0 0 0 0 0 0 0 0 0 0 0 0 0 0 0 0 0 0 0 0 0 0 0 0 0 0 0 0 0 0 0 0 0 0 0
2 1 1 2 2 1 1 0 0 0 0 0 0 0 0 0 0 0 0 0 0 0 0 0 0 0 0 0 0 0 0 0 0 0 0 1 0 0 0 0 0 0 0
3 3 3 3 3 2 1 0 0 0 0 0 0 0 0 0 0 0 0 0 0 0 0 0 0 0 0 0 0 0 0 0 0 0 0 0 0 0 0 0 0 0 0
3 3 3 3 3 2 1 0 0 0 0 0 0 0 0 0 0 0 0 0 0 0 0 0 0 0 0 0 0 0 0 0 0 0 0 0 0 0 0 0 0 0 0
3 3 3 3 3 2 1 0 0 0 0 0 0 0 0 0 0 0 0 0 0 0 0 0 0 0 0 0 0 0 0 0 0 0 1 1 1 0 0 0 0 0 0

GEFSMA_con_probscp_186.txt.gz
Probability
30 30 32 32 28 25 22 20 21 22 20 18 17 17 18 18 17 18 22 29 35 37 36 33 29 28 30 30 30 27 21 16 15 19 24 26 24 20 16 15 14 10 7
32 31 31 30 27 26 25 22 23 24 23 22 22 22 21 20 20 21 23 26 30 35 37 36 32 30 30 30 31 28 24 20 17 18 23 24 23 21 18 16 15 11 7
35 32 30 30 29 28 27 24 24 26 25 24 25 24 21 19 20 22 25 25 25 28 34 37 35 32 30 29 28 27 25 23 20 18 19 20 22 22 19 17 15 12 9
32 30 29 29 28 27 23 20 22 25 23 21 21 18 15 15 17 20 23 24 22 23 29 33 33 32 31 28 26 23 22 24 23 19 16 15 18 20 18 15 13 12 11
27 26 26 24 22 19 17 16 20 23 20 16 13 10 9 10 13 15 18 20 19 21 25 29 30 31 32 31 26 21 18 20 22 20 16 14 14 15 14 12 11 11 11
25 23 21 20 18 16 15 16 19 19 16 12 9 6 6 8 10 11 15 17 17 19 23 26 27 27 29 30 27 21 17 17 18 19 18 15 13 11 11 11 10 9 8
23 21 18 17 18 17 17 17 17 14 13 12 9 4 4 6 8 10 14 16 16 16 18 21 22 21 21 23 23 20 17 16 17 18 17 14 12 11 11 12 10 7 6
21 19 17 16 16 16 16 16 15 12 12 11 8 4 2 3 5 7 10 12 13 13 12 14 16 15 15 16 16 14 15 15 17 18 15 13 12 11 11 12 11 8 6
19 18 17 16 15 14 13 13 12 11 10 9 8 5 3 2 3 4 6 7 9 10 8 8 10 12 12 12 11 9 10 13 16 17 15 14 12 9 8 10 11 9 7
15 16 16 16 14 12 12 12 11 10 9 9 9 7 4 3 3 3 4 4 5 6 6 5 6 9 10 10 9 7 6 8 12 15 15 15 12 8 7 7 8 8 6
12 13 13 13 12 11 11 12 11 10 10 10 9 8 6 4 3 2 2 2 2 3 4 3 4 7 9 9 7 4 2 3 6 10 12 12 9 7 6 6 6 6 5
9 9 8 8 9 9 10 11 11 11 11 11 10 8 7 6 4 2 1 1 1 2 2 2 4 6 8 8 5 2 1 1 3 5 7 7 6 5 4 4 5 5 5
6 5 4 5 6 6 7 10 11 12 12 10 9 7 6 5 3 1 1 0 1 1 0 1 3 5 7 6 4 1 0 0 1 2 3 3 4 4 4 4 5 4 5
4 3 3 4 5 4 5 7 10 10 11 9 7 5 3 3 1 0 0 0 0 0 0 0 2 4 5 5 3 1 0 0 0 0 1 1 1 2 3 3 4 3 3
3 3 3 3 4 3 3 5 6 6 7 7 6 3 2 1 1 1 2 1 1 0 0 0 1 3 3 3 2 1 0 0 0 0 0 0 0 1 1 1 2 1 1
3 3 3 3 3 3 3 3 4 4 4 5 5 3 2 2 2 3 3 2 2 1 0 0 2 3 2 1 1 0 0 0 0 0 0 0 0 0 0 0 0 0 0
3 3 3 3 3 3 3 3 3 3 3 4 4 3 2 3 3 3 2 2 1 1 0 0 1 2 1 0 0 0 0 0 0 0 0 0 0 0 0 0 0 0 0
3 3 3 3 3 3 3 3 3 3 3 3 3 3 2 2 2 1 1 0 0 0 0 0 0 0 0 0 0 0 0 0 0 0 0 0 0 0 0 0 0 0 0
3 3 3 3 3 3 3 3 3 3 2 2 2 2 2 1 1 0 0 0 0 0 0 0 0 0 0 0 0 0 0 0 0 0 0 0 0 0 0 0 0 0 0
3 3 3 3 3 3 3 3 3 3 2 1 1 1 1 0 0 0 0 0 0 0 0 0 0 0 0 0 0 0 0 0 0 0 0 0 0 0 0 0 0 0 0
3 3 3 3 3 3 3 3 3 3 2 1 0 0 0 0 0 0 0 0 0 0 0 0 0 0 0 0 0 0 0 0 0 0 0 0 0 0 0 0 0 0 0
3 3 3 3 3 3 2 1 1 2 2 1 0 0 0 0 0 0 0 0 0 0 0 0 0 0 0 0 0 0 0 0 0 0 0 0 0 0 0 0 0 0 0
3 3 3 3 3 3 1 0 0 1 2 2 1 0 0 0 0 0 1 1 1 1 0 0 0 0 0 1 0 0 0 0 0 0 0 0 0 0 0 0 0 0 0
1 2 3 3 3 2 1 0 0 0 1 2 1 1 0 0 0 0 1 2 2 1 0 0 0 0 0 0 0 0 0 0 0 0 0 0 0 0 0 0 0 0 0
0 1 1 3 4 3 1 0 0 0 1 1 1 1 0 0 0 0 1 1 1 1 0 0 0 0 0 0 0 0 0 0 0 0 0 0 0 0 0 0 0 0 0
0 0 1 3 5 4 1 0 0 1 1 1 1 1 0 0 0 0 0 0 0 0 0 0 0 0 0 0 0 0 0 0 0 0 0 0 0 0 0 0 0 0 0

GEFSMA_con_probscp_192.txt.gz
Probability
13 12 9 9 8 6 7 9 9 7 6 5 3 2 2 2 1 1 0 1 5 9 13 15 16 16 16 19 20 23 26 26 25 25 23 17 15 16 16 16 17 16 15
12 11 9 8 7 5 5 6 6 5 5 3 1 1 1 1 1 1 0 1 3 8 12 15 16 16 16 17 18 22 27 30 28 26 23 19 17 16 16 17 16 16 15
11 8 7 6 5 4 3 2 2 2 2 1 0 0 0 0 0 0 0 0 1 4 9 15 18 18 16 15 15 18 25 29 30 29 25 22 20 18 17 17 16 15 14
10 7 4 4 4 3 2 0 0 0 0 0 0 0 0 0 0 0 0 0 0 1 5 11 16 16 15 15 14 15 19 24 29 29 28 25 21 19 19 18 16 14 13
11 8 4 3 3 3 1 0 0 0 1 1 0 0 0 0 0 0 0 0 0 0 1 4 8 10 12 14 14 12 14 21 25 26 25 24 21 20 20 19 16 14 12
11 9 5 4 4 3 1 0 0 0 1 1 0 0 0 0 0 0 0 0 0 0 0 0 2 4 8 12 13 11 12 18 22 21 20 20 20 20 18 16 15 13 11
10 8 5 5 4 3 1 0 0 0 1 1 0 0 0 0 0 0 0 0 0 0 0 0 1 2 4 7 8 9 11 17 21 19 16 17 18 18 15 13 13 12 9
7 6 4 4 3 1 0 0 0 0 0 0 0 0 0 0 0 0 0 0 0 0 0 0 0 1 1 2 3 5 10 16 18 17 14 14 15 14 13 12 11 9 6
4 4 3 3 2 1 0 0 0 0 0 0 0 0 0 0 0 0 0 0 0 0 0 0 0 0 0 0 0 2 6 10 12 12 11 11 11 10 10 9 8 6 4
3 3 4 3 1 0 0 0 0 0 0 0 0 0 0 0 0 0 0 0 0 0 0 0 0 0 0 0 0 1 2 3 5 7 8 9 9 8 6 5 6 6 5
5 5 5 3 1 0 0 0 0 0 0 0 0 0 0 0 0 0 0 0 0 0 0 0 0 0 0 0 0 0 0 0 1 3 4 5 7 7 4 3 4 5 6
6 6 5 3 1 0 0 0 0 0 0 0 0 0 0 0 0 0 0 0 0 0 0 0 0 0 0 0 0 0 0 0 0 1 1 2 4 4 3 1 2 3 4
5 5 4 3 2 1 0 0 0 0 0 0 0 0 0 0 0 0 0 0 0 0 0 0 0 0 0 0 0 0 0 0 0 0 0 0 1 2 2 1 1 2 3
4 4 4 4 3 1 1 1 0 0 0 0 0 0 0 0 0 0 0 0 0 0 0 0 0 0 0 0 0 0 0 0 0 0 0 0 0 1 1 1 1 2 3
3 4 4 4 3 3 2 2 1 0 0 0 0 0 0 0 0 0 0 0 0 0 0 0 0 0 0 0 0 0 0 0 0 0 0 0 0 0 0 0 1 2 3
3 3 4 4 3 3 3 3 1 0 0 0 0 0 0 0 0 0 0 0 0 0 0 0 0 0 0 0 0 0 0 0 0 0 0 0 0 0 0 0 1 2 2
3 3 3 3 3 3 3 3 2 1 0 0 0 0 0 0 0 0 0 0 0 0 0 0 0 0 0 0 0 0 0 0 0 0 0 0 0 0 0 0 0 1 1
3 3 3 3 3 2 2 3 2 1 0 0 0 0 0 0 0 0 0 0 0 0 0 0 0 0 0 0 0 0 0 0 0 0 0 0 0 0 0 0 0 0 0
3 3 3 2 1 1 1 1 2 2 1 1 0 0 0 0 0 0 0 0 0 0 0 0 0 0 0 0 0 0 0 0 0 0 0 0 0 0 0 0 0 0 0
2 2 2 1 0 1 1 1 2 3 3 2 1 0 0 0 0 0 0 0 0 0 0 0 0 0 0 0 0 0 0 0 0 0 0 0 0 0 0 0 0 0 0
1 1 1 1 1 2 2 2 2 3 3 3 2 0 0 0 0 0 0 0 0 0 0 0 0 0 0 0 0 0 0 0 0 0 0 0 0 0 0 0 0 0 0
0 0 0 1 1 2 2 2 2 3 3 3 2 0 0 0 0 0 0 0 0 0 0 0 0 0 0 0 0 0 0 0 0 0 0 0 0 0 0 0 0 0 0
0 0 0 0 1 1 1 0 1 2 3 3 2 1 0 0 0 0 0 0 0 0 0 0 0 0 0 0 0 0 0 0 0 0 0 0 0 0 0 0 0 0 0
0 0 0 0 0 0 0 0 0 1 2 2 2 1 1 1 0 0 0 0 0 0 0 0 0 0 0 0 0 0 0 0 0 0 0 0 0 0 0 0 0 0 0
0 0 0 0 0 0 0 0 0 0 1 1 1 1 0 0 0 0 0 0 0 0 0 0 0 0 0 0 0 0 0 0 0 0 0 0 0 0 0 0 0 0 0
0 0 0 0 0 0 0 0 0 0 0 0 0 0 0 0 0 0 0 0 0 0 0 0 0 0 0 0 0 0 0 0 0 0 0 0 0 0 0 0 0 0 0

GEFSMA_con_probscp_198.txt.gz
Probability
12 7 4 4 5 6 8 9 7 5 6 6 4 4 5 5 4 2 1 2 3 5 5 4 6 10 11 10 11 13 15 15 14 13 12 13 11 9 9 8 9 11 13
13 8 4 5 6 7 7 7 6 4 4 5 4 5 5 5 4 3 2 2 3 3 4 5 7 10 12 11 10 12 13 15 15 13 12 11 10 10 10 10 9 10 10
13 9 6 6 6 5 5 5 4 3 3 3 3 3 3 3 3 2 2 2 1 1 2 4 6 8 11 11 11 11 12 14 15 14 11 9 10 12 13 12 10 8 7
13 11 8 6 5 4 3 3 2 2 1 1 1 1 1 2 1 1 1 1 0 0 1 2 2 4 6 8 9 10 9 12 14 13 10 9 10 13 15 14 11 8 7
11 10 8 6 5 4 3 3 2 1 0 0 0 0 0 1 1 0 0 0 0 0 0 0 1 2 3 4 5 7 7 9 12 12 10 9 11 12 13 13 11 9 10
9 8 7 6 4 4 4 5 4 2 0 0 0 0 0 0 0 0 0 0 0 0 0 0 1 3 4 4 4 5 7 10 12 13 11 10 11 10 10 11 10 10 11
9 8 7 6 4 3 4 5 5 3 1 0 0 0 0 0 0 0 0 0 0 0 0 0 1 2 4 4 3 4 7 11 14 15 15 14 12 10 9 10 9 9 10
7 7 6 4 3 3 3 4 4 3 2 1 0 0 0 0 0 0 0 0 0 0 0 0 0 0 2 3 3 2 4 9 13 15 15 16 15 11 10 10 10 11 12
5 4 3 2 2 2 2 2 2 2 2 1 0 0 0 0 0 0 0 0 0 0 0 0 0 0 1 2 2 2 2 6 9 11 13 14 14 13 11 11 12 12 12
3 2 1 0 1 1 1 1 1 1 1 1 0 0 0 0 0 0 0 0 0 0 0 0 0 0 0 1 1 1 1 2 4 7 9 11 12 14 14 13 12 12 11
2 1 0 0 0 0 0 0 0 0 0 0 0 0 0 0 0 0 0 0 0 0 0 0 0 0 0 0 0 0 0 0 1 4 6 7 9 13 14 12 11 11 11
2 1 1 1 1 0 0 0 0 0 0 0 0 0 0 0 0 0 0 0 0 0 0 0 0 0 0 0 0 0 0 0 0 1 2 2 5 8 10 9 10 11 11
3 3 2 2 2 1 1 0 0 0 0 0 0 0 0 0 0 0 0 0 0 0 0 0 0 0 0 0 0 0 0 0 0 0 0 0 1 2 4 5 7 8 9
3 3 3 3 3 3 2 1 1 0 0 0 0 0 0 0 0 0 0 0 0 0 0 0 0 0 0 0 0 0 0 0 0 0 0 0 0 0 1 2 3 3 3
2 3 3 3 3 3 3 3 2 1 1 0 0 0 0 0 0 0 0 0 0 0 0 0 0 0 0 0 0 0 0 0 0 0 0 0 0 0 0 1 1 0 0
2 2 3 3 3 3 3 3 3 3 2 1 1 0 0 0 0 0 0 0 0 0 0 0 0 0 0 0 0 0 0 0 0 0 0 0 0 0 0 0 0 0 0
2 3 3 3 3 3 3 3 3 3 3 3 2 1 0 0 0 0 0 0 0 0 0 0 0 0 0 0 0 0 0 0 0 0 0 0 0 0 0 0 0 0 0
2 3 3 3 3 3 3 3 3 3 3 3 2 1 0 0 0 0 0 0 0 0 0 0 0 0 0 0 0 0 0 0 0 0 0 0 0 0 0 0 0 0 0
1 1 2 2 3 3 3 3 3 3 3 3 3 1 0 0 0 0 0 0 0 0 0 0 0 0 0 0 0 0 0 0 0 0 0 0 0 0 0 0 0 0 0
0 0 1 1 1 2 3 3 3 3 3 3 3 2 1 0 0 0 0 0 0 0 0 0 0 0 0 0 0 0 0 0 0 0 0 0 0 0 0 0 0 0 0
0 0 0 0 0 1 1 2 2 3 3 3 3 3 2 0 0 0 0 0 0 0 0 0 0 0 0 0 0 0 0 0 0 0 0 0 0 0 0 0 0 0 0
0 0 0 0 0 0 0 1 1 1 2 3 3 3 2 1 0 0 0 0 0 0 0 0 0 0 0 0 0 0 0 0 0 0 0 0 0 0 0 0 0 0 0
0 0 0 0 0 0 0 0 0 0 1 3 3 3 3 2 1 0 0 0 0 0 0 0 0 0 0 0 0 0 0 0 0 0 0 0 0 0 0 0 0 0 0
0 0 0 0 0 0 0 0 0 0 1 2 2 2 2 2 1 0 0 0 0 0 0 0 0 0 0 0 0 0 0 0 0 0 0 0 0 0 0 0 0 0 0
0 0 0 0 0 0 0 0 0 0 0 1 1 1 1 1 0 0 0 0 0 0 0 0 0 0 0 0 0 0 0 0 0 0 0 0 0 0 0 0 0 0 0
0 0 0 0 0 0 0 0 0 0 0 0 0 0 0 0 0 0 0 0 0 0 0 0 0 0 0 0 0 0 0 0 0 0 0 0 0 0 0 0 0 0 0

GEFSMA_con_probscp_204.txt.gz
Probability
26 26 27 26 22 19 17 16 12 8 8 8 6 4 5 6 7 8 12 14 10 6 3 3 6 9 9 8 9 12 13 12 13 17 23 24 20 18 21 24 25 25 24
25 25 27 26 23 19 18 18 14 10 10 9 6 5 6 7 8 8 9 9 8 6 4 4 7 9 9 9 10 12 14 14 14 16 20 23 21 18 18 21 23 22 21
23 25 27 27 23 20 20 20 15 11 9 8 7 7 8 9 9 9 8 6 5 5 4 5 8 9 8 8 9 11 14 15 15 18 19 20 21 18 17 18 19 17 15
21 24 26 25 22 20 20 20 16 12 9 8 7 8 9 10 9 8 6 4 3 4 4 6 7 7 5 5 5 8 12 14 15 17 19 20 21 21 19 17 16 14 12
19 21 23 23 20 18 19 19 18 15 11 8 7 6 7 8 7 4 3 3 4 4 4 5 5 4 4 4 5 8 10 12 13 14 17 20 21 22 22 18 13 11 10
19 19 21 22 19 17 18 19 18 16 13 9 6 5 5 6 6 4 2 3 4 4 4 5 5 5 4 5 7 9 9 10 11 13 16 19 20 20 20 18 14 10 7
17 17 18 20 19 16 15 16 17 15 13 10 7 5 5 6 6 6 5 5 4 4 4 6 7 6 5 5 6 8 9 9 11 13 14 15 16 18 18 16 14 11 8
14 13 14 16 17 15 12 12 13 13 11 10 9 8 7 6 6 6 6 4 3 4 5 6 8 7 6 7 6 6 7 8 9 11 11 11 13 16 17 14 12 11 10
12 12 13 14 14 12 10 10 10 10 10 11 10 9 8 7 7 6 5 4 3 4 5 7 8 8 8 8 7 5 6 8 8 8 9 9 9 12 14 13 10 9 9
11 11 12 12 11 9 8 8 8 9 10 11 11 10 9 8 7 6 5 4 4 4 5 6 8 8 8 9 8 6 5 6 7 7 6 7 8 9 9 9 9 8 8
8 8 9 10 9 7 6 7 8 9 9 10 10 10 9 8 6 6 6 5 4 4 4 6 7 8 9 10 9 6 4 3 4 3 3 3 6 6 5 6 7 7 6
6 6 7 7 7 6 6 7 9 10 9 8 9 9 9 8 7 7 5 4 3 3 4 6 6 7 9 11 9 4 1 1 1 1 1 1 2 3 3 3 4 4 4
7 7 7 6 6 6 6 6 8 9 8 8 8 8 9 9 9 8 5 4 3 3 4 5 4 5 7 8 6 2 0 0 0 0 0 0 0 1 1 1 1 2 1
8 8 7 6 4 4 4 5 6 7 7 7 7 9 9 9 7 6 6 4 3 2 3 3 3 3 4 4 3 1 0 0 0 0 0 0 0 0 0 0 0 0 0
7 8 8 6 4 3 2 3 4 5 6 6 7 7 8 7 5 4 4 4 3 3 2 2 2 2 2 1 0 0 1 0 0 0 0 0 0 0 0 0 0 0 0
5 6 6 6 5 4 3 2 3 4 5 6 6 6 6 5 4 3 3 4 3 3 2 1 0 0 0 0 0 0 0 0 0 0 0 0 0 0 0 0 0 0 0
4 4 4 4 5 5 4 3 3 3 4 4 4 4 5 4 3 3 3 3 2 1 1 0 0 0 0 0 0 0 0 0 0 0 0 0 0 0 0 0 0 0 0
3 3 3 3 4 4 4 3 3 3 3 3 3 3 4 3 3 3 3 3 2 0 0 0 0 0 0 0 0 0 0 0 0 0 0 0 0 0 0 0 0 0 0
2 2 2 2 2 3 3 3 3 3 3 3 3 3 3 3 3 3 3 3 2 1 0 0 0 0 0 1 0 0 0 0 0 0 0 0 0 0 0 0 0 0 0
1 1 1 1 1 1 2 2 3 3 3 3 3 3 3 3 3 3 3 3 3 2 0 0 0 0 0 0 0 0 0 0 0 1 1 1 0 0 0 0 0 0 0
0 0 0 0 0 0 1 1 1 2 2 3 3 3 3 3 3 3 2 2 2 1 0 0 0 0 0 0 0 0 0 0 0 1 2 1 0 0 0 0 0 0 0
0 0 0 0 0 0 0 0 0 1 1 1 2 3 3 3 3 2 1 1 1 0 0 0 0 0 0 0 0 0 0 0 0 1 1 1 0 0 0 0 0 0 0
0 0 0 0 0 0 0 0 0 0 0 0 1 2 3 3 3 2 1 1 0 0 0 0 0 0 0 0 0 0 0 0 0 0 0 0 0 1 0 0 0 0 0
0 0 0 0 0 0 0 0 0 0 0 0 0 1 2 3 3 3 2 1 0 0 0 0 0 0 0 0 0 0 0 0 0 0 0 0 0 1 1 0 0 0 0
0 0 0 0 0 0 0 0 0 0 0 0 0 0 1 2 3 2 2 1 0 0 0 0 0 0 0 0 0 0 0 0 0 0 0 0 0 1 1 1 0 0 0
0 0 0 0 0 0 0 0 0 0 0 0 0 0 1 2 2 1 1 0 0 0 0 0 0 0 0 0 0 0 0 0 0 0 0 0 0 1 1 1 1 1 0

GEFSMA_con_probscp_210.txt.gz
Probability
28 25 22 21 22 21 20 19 17 14 11 8 4 3 4 6 6 8 15 21 25 27 26 22 19 17 17 16 15 18 24 27 25 23 22 24 26 28 26 23 22 22 21
30 28 26 25 24 23 20 17 16 13 11 9 7 7 8 7 6 7 13 20 25 28 28 25 20 17 15 14 13 15 20 25 26 25 23 21 22 26 27 25 22 20 20
30 30 30 28 25 23 19 16 14 12 10 9 9 10 11 9 8 8 11 18 23 27 29 26 22 19 16 12 9 9 12 17 22 24 24 22 20 23 25 24 21 19 19
28 28 28 25 22 21 18 14 12 11 10 9 9 10 10 10 8 8 10 13 17 22 25 23 21 19 16 11 6 4 5 9 14 19 22 22 21 22 24 22 17 15 15
25 25 24 22 19 19 17 13 12 12 11 10 10 10 10 10 9 8 9 10 12 16 18 18 17 16 15 10 5 4 4 5 8 11 15 17 19 21 22 19 13 10 10
22 21 22 22 20 19 17 14 14 14 13 11 10 9 10 9 8 9 10 11 11 12 13 14 14 13 12 10 8 7 6 6 7 9 10 13 16 17 18 16 13 10 9
20 19 20 20 18 17 16 14 13 13 13 12 10 9 8 8 7 10 13 12 10 8 7 10 12 11 9 9 9 9 8 8 10 11 12 13 14 14 14 14 12 11 11
18 18 19 19 16 15 14 13 12 12 13 12 10 9 7 7 7 8 10 10 7 4 4 6 10 10 8 6 6 6 8 10 12 12 13 14 14 13 12 11 10 11 12
16 17 19 20 19 17 15 14 13 13 13 12 11 9 8 7 7 7 7 6 5 4 2 3 7 9 7 5 3 3 4 7 10 12 13 13 12 11 10 9 7 8 10
15 16 17 18 20 19 18 17 15 14 12 10 9 8 7 7 6 6 5 5 6 5 3 4 6 8 8 6 4 3 2 3 6 9 11 10 9 9 8 8 7 7 7
13 14 14 15 17 18 18 18 16 15 12 8 7 6 6 5 5 4 4 5 6 6 6 6 7 8 10 9 6 4 2 1 2 4 7 7 7 7 8 7 7 6 6
11 12 13 14 15 16 15 15 16 16 14 9 7 6 5 4 4 4 3 3 5 6 7 8 8 8 10 10 6 4 3 2 1 1 2 4 5 7 7 6 6 6 6
10 10 11 13 16 15 13 13 15 16 14 11 8 6 6 5 5 5 4 3 5 6 7 7 7 7 8 8 5 3 3 3 1 0 0 1 3 4 5 4 4 5 5
10 10 10 12 14 13 12 11 11 12 12 11 9 7 6 4 5 6 5 5 5 6 6 7 7 7 7 6 3 2 3 3 2 1 0 0 1 2 2 2 2 3 2
10 10 9 9 10 9 8 8 8 8 9 9 9 8 5 4 4 5 6 6 6 6 6 6 7 7 6 4 2 2 3 3 3 2 1 1 0 1 1 1 1 1 0
11 10 8 8 8 7 6 5 5 6 6 7 8 8 5 4 3 4 4 5 6 5 4 5 6 6 5 3 2 2 3 3 3 3 3 2 1 1 1 1 0 0 0
11 10 8 7 6 6 5 4 4 5 5 6 7 6 4 3 3 3 3 4 4 3 2 3 4 5 3 2 1 1 2 2 2 2 3 3 1 0 0 0 0 0 0
9 9 9 7 5 4 5 4 4 4 4 4 5 4 3 3 3 3 3 3 3 2 1 1 2 3 2 1 0 0 1 1 0 1 2 3 2 1 0 0 0 0 0
7 7 8 7 5 3 2 2 2 3 3 4 5 4 3 3 3 3 1 1 2 2 1 0 0 1 1 0 0 0 0 0 0 0 1 2 2 1 0 0 0 0 0
4 5 6 6 5 3 1 0 1 2 3 5 6 6 4 3 3 2 1 0 1 1 1 0 0 0 0 0 0 0 0 0 0 0 0 1 1 1 0 0 0 0 0
2 2 2 3 3 2 0 0 1 2 3 4 6 6 4 2 2 1 0 0 0 1 1 0 0 0 0 0 0 0 0 0 0 0 0 0 0 0 0 0 0 0 0
4 3 2 1 1 0 0 0 1 1 2 3 4 3 2 1 0 0 0 0 0 1 2 1 0 0 0 0 0 0 0 0 0 0 0 0 0 0 0 0 0 0 0
6 5 4 2 0 0 0 0 0 0 1 2 2 1 1 1 0 1 1 0 0 1 1 1 0 0 0 0 0 0 0 0 0 0 0 0 0 0 0 0 0 0 0
7 5 3 2 0 0 0 0 0 0 1 1 2 1 0 1 1 1 1 0 0 0 0 0 0 0 0 0 0 0 0 0 0 0 0 0 0 0 0 0 0 0 0
6 4 1 1 0 0 0 0 0 0 0 1 1 1 0 0 0 1 1 0 0 0 0 0 0 0 0 0 0 0 0 0 0 0 1 0 0 0 0 0 0 0 0
4 2 0 0 0 0 0 0 0 0 0 0 1 0 0 0 0 0 0 0 0 0 0 0 0 0 0 0 0 0 0 0 0 0 1 0 0 0 0 0 0 0 0

GEFSMA_con_probscp_216.txt.gz
Probability
14 14 13 12 11 12 13 13 13 13 13 14 13 10 7 6 6 3 1 1 5 9 11 12 11 13 18 23 26 26 20 16 15 15 16 16 16 19 21 21 20 17 16
12 11 10 9 8 9 10 11 11 12 11 11 11 9 7 6 5 3 1 1 4 9 12 13 11 10 13 18 22 24 21 19 19 17 16 17 17 19 21 22 22 20 19
10 10 9 8 7 7 8 9 9 9 8 6 6 6 6 6 4 2 1 0 2 6 12 15 14 10 8 11 16 20 21 20 20 18 14 14 16 16 18 21 22 22 22
9 9 9 9 8 8 8 7 7 7 5 3 2 3 4 4 4 2 1 0 0 3 9 13 14 12 9 8 11 15 16 16 16 15 11 10 11 12 14 16 19 20 20
6 6 7 7 8 9 8 6 5 4 3 1 0 1 1 2 2 1 0 0 1 2 5 8 10 11 10 9 9 11 12 12 13 12 10 9 10 11 10 12 13 15 17
2 2 3 5 6 7 7 5 3 3 3 2 1 0 0 1 1 0 0 0 1 2 2 4 6 8 10 10 10 10 11 11 11 10 9 9 11 12 10 9 9 10 12
0 0 1 3 4 5 4 3 3 4 3 2 1 0 0 0 0 0 0 0 1 1 1 1 3 5 6 9 11 10 11 11 11 9 8 10 11 12 11 10 9 8 9
1 0 1 2 3 3 3 3 3 4 3 2 1 0 0 0 0 0 0 0 0 0 0 0 1 2 3 5 8 10 11 12 12 10 10 10 10 12 13 13 11 9 7
2 1 0 1 2 3 3 3 4 5 4 3 2 0 0 0 0 0 0 0 0 0 0 0 0 1 2 3 6 9 10 11 11 11 12 11 10 12 15 16 13 9 7
3 2 1 0 1 2 2 3 4 5 4 4 2 1 0 0 0 0 0 0 0 0 0 0 0 1 2 3 5 7 7 7 8 10 11 11 10 10 14 16 14 11 10
3 3 2 1 1 1 1 2 3 4 4 4 3 1 0 0 0 0 0 0 0 0 0 0 0 1 2 2 3 4 4 4 5 7 8 9 9 9 11 12 11 11 11
3 3 3 3 2 2 1 1 2 3 4 4 3 1 0 0 0 0 0 0 0 0 0 0 0 1 1 1 1 2 2 2 2 3 4 5 7 7 8 8 6 6 7
3 3 3 3 3 3 2 2 1 2 2 2 2 1 0 0 0 0 0 0 0 0 0 0 0 0 0 0 1 1 1 0 1 1 2 3 4 5 6 6 4 2 2
2 2 2 2 3 3 3 1 0 0 0 0 0 0 0 0 0 0 0 0 0 0 0 0 0 0 0 0 0 0 0 0 0 0 1 1 1 2 3 3 2 1 1
1 1 1 1 2 2 2 1 0 0 0 0 0 0 0 0 0 0 0 0 0 0 0 0 0 0 0 0 0 0 0 0 0 0 0 0 0 1 1 0 0 0 0
0 0 0 0 1 1 1 0 0 0 0 0 0 0 0 0 0 0 0 0 0 0 0 0 0 0 0 0 0 0 0 0 0 0 0 0 0 0 0 0 0 0 0
0 0 0 0 0 0 0 0 0 0 0 0 0 0 0 0 0 0 0 0 0 0 0 0 0 0 0 0 0 0 0 0 0 0 0 0 0 0 0 0 0 0 0
0 0 0 0 0 0 0 0 0 0 0 0 0 0 0 0 0 0 0 0 0 0 0 0 0 1 0 0 0 0 0 0 0 0 0 0 0 0 0 0 0 0 0
0 0 0 0 0 0 0 0 0 0 0 0 0 0 0 0 0 0 0 0 0 0 0 0 0 0 0 0 1 1 0 0 0 0 0 0 0 0 0 0 0 0 0
0 0 0 0 0 0 0 0 0 0 0 0 0 0 0 0 0 0 0 0 0 0 0 0 0 0 0 1 2 2 1 0 0 0 0 0 0 0 0 0 0 0 0
0 0 0 0 0 0 0 0 0 0 0 0 0 0 0 0 0 0 0 0 0 0 0 0 0 0 0 1 2 2 1 0 0 0 0 0 0 0 0 0 0 0 0
0 0 0 0 0 0 0 0 0 0 0 0 0 0 0 0 0 0 0 0 0 0 0 0 0 0 0 0 1 1 0 0 0 0 0 0 0 0 0 0 0 0 0
0 0 0 0 0 0 0 0 0 0 0 0 0 0 0 0 0 0 0 0 0 0 0 0 0 0 0 0 0 0 0 0 0 0 0 0 0 0 0 0 0 0 0
0 0 0 0 0 0 0 0 0 0 0 0 0 0 0 0 0 0 0 0 0 0 0 0 0 0 0 0 0 0 0 0 0 0 0 0 0 0 0 0 0 0 0
0 0 0 0 0 0 0 0 0 0 0 0 0 0 0 0 0 0 0 0 0 0 0 0 0 0 0 0 0 0 0 0 0 0 0 0 0 0 0 0 0 0 0
0 0 0 0 0 0 0 0 0 0 0 0 0 0 0 0 0 0 0 0 0 0 0 0 0 0 0 0 0 0 0 0 0 0 0 0 0 0 0 0 0 0 0

GEFSMA_con_probscp_222.txt.gz
Probability
10 10 11 12 12 14 14 14 14 14 14 15 16 16 15 14 14 13 12 12 10 7 5 4 4 5 6 7 9 11 13 12 8 6 6 7 11 14 16 16 15 14 13
10 10 10 10 10 11 12 13 14 14 15 15 15 16 16 15 15 13 11 10 9 7 6 7 8 7 7 8 8 10 13 12 8 6 6 7 10 13 15 15 15 15 14
9 9 9 9 8 8 9 11 13 14 14 14 14 14 14 15 15 13 10 8 7 6 7 9 11 10 9 9 8 8 12 12 9 6 6 7 10 12 13 14 14 14 13
7 7 7 7 6 5 6 8 10 11 11 11 11 11 11 12 11 10 8 7 6 5 6 8 10 10 10 11 9 8 10 11 9 7 6 7 10 12 12 12 11 12 13
6 6 6 6 5 4 4 5 7 8 8 8 8 8 8 7 6 5 5 4 4 4 5 6 6 8 10 12 12 11 10 11 10 9 7 8 10 12 12 10 9 11 14
4 4 5 5 5 3 3 4 4 5 5 5 6 5 5 3 2 2 2 3 3 3 4 3 4 6 10 12 12 11 10 10 11 10 8 9 11 13 13 11 9 10 12
3 3 4 4 3 1 1 2 3 3 3 4 4 4 3 2 1 0 1 2 3 3 3 3 3 6 8 9 9 8 8 10 10 9 8 9 12 14 13 11 9 9 9
1 2 2 2 1 0 0 1 1 2 3 4 4 3 3 2 1 0 0 1 1 2 3 2 3 5 6 7 5 4 6 8 9 10 10 10 13 15 14 11 9 8 7
0 1 1 1 0 0 0 0 1 2 3 4 4 4 3 2 1 0 0 0 0 1 1 1 1 2 3 4 3 2 3 6 8 11 12 12 14 15 15 12 9 8 7
0 0 0 0 0 0 0 0 1 2 3 3 4 3 3 2 0 0 0 0 0 0 0 0 0 0 1 1 1 1 1 3 5 9 12 13 14 15 14 12 9 8 8
0 0 0 0 0 0 0 0 0 1 1 2 3 3 3 2 1 0 0 0 0 0 0 0 0 0 0 0 0 0 1 1 2 5 9 11 12 13 12 11 9 9 9
0 0 1 1 1 0 0 0 0 0 0 1 2 3 4 4 1 0 0 0 0 0 0 0 0 0 0 0 0 0 0 0 1 2 5 6 7 8 8 7 8 9 11
0 0 1 1 1 0 0 0 0 0 0 0 2 3 4 3 1 0 0 0 0 0 0 0 0 0 0 0 0 0 0 1 0 0 1 2 2 4 3 3 4 7 9
0 0 0 1 1 0 0 0 0 0 0 0 1 2 2 1 0 0 0 0 0 0 0 0 0 0 0 0 0 0 0 0 0 0 0 0 0 1 0 0 1 3 3
0 0 0 0 0 0 0 0 0 0 0 0 1 1 1 0 0 0 0 0 0 0 0 0 0 0 0 0 0 0 0 0 0 0 0 0 0 0 0 0 0 0 0
0 0 0 0 0 0 0 0 0 0 0 0 0 0 0 0 0 0 0 0 0 0 0 0 0 0 0 0 0 0 0 0 0 0 0 0 0 0 0 0 0 0 0
0 0 0 0 0 0 0 0 0 0 0 0 0 0 0 0 0 0 0 0 0 0 0 0 0 0 0 0 0 0 0 0 0 0 0 0 0 0 0 0 0 0 0
0 0 0 0 0 0 0 0 0 0 0 0 0 0 0 0 0 0 0 0 0 0 0 0 0 0 0 0 0 0 0 0 0 0 0 0 0 0 0 0 0 0 0
0 0 0 0 0 0 0 0 0 0 0 0 0 0 0 0 0 0 0 0 0 0 0 0 0 0 0 0 0 0 0 0 0 0 0 0 0 0 0 0 0 0 0
0 0 0 0 0 0 0 0 0 0 0 0 0 0 0 0 0 0 0 0 0 0 0 0 0 0 0 0 0 0 0 0 0 0 0 0 0 0 0 0 0 0 0
0 0 0 0 0 0 0 0 0 0 0 0 0 0 0 0 0 0 0 0 0 0 0 0 0 0 0 0 0 0 0 0 0 0 0 0 0 0 0 0 0 0 0
0 0 0 0 0 0 0 0 0 0 0 0 0 0 0 0 0 0 0 0 0 0 0 0 0 0 0 0 0 0 0 0 0 0 0 0 0 0 0 0 0 0 0
0 0 0 0 0 0 0 0 0 0 0 0 0 0 0 0 0 0 0 0 0 0 0 0 0 0 0 0 0 0 0 0 0 0 0 0 0 0 0 0 0 0 0
0 0 0 0 0 0 0 0 0 0 0 0 0 0 0 0 0 0 0 0 0 0 0 0 0 0 0 0 0 0 0 0 0 0 0 0 0 0 0 0 0 0 0
0 0 0 0 0 0 0 0 0 0 0 0 0 0 0 0 0 0 0 0 0 0 0 0 0 0 0 0 0 0 0 0 0 0 0 0 0 0 0 0 0 0 0
0 0 0 0 0 0 0 0 0 0 0 0 0 0 0 0 0 0 0 0 0 0 0 0 0 0 0 0 0 0 0 0 0 0 0 0 0 0 0 0 0 0 0

GEFSMA_con_probscp_228.txt.gz
Probability
11 12 14 14 11 10 10 11 11 11 13 14 13 12 13 16 20 21 22 24 25 23 17 14 13 14 15 18 17 16 20 24 24 21 20 20 22 23 23 23 20 14 13
12 12 13 13 12 11 11 11 11 12 13 13 13 12 13 16 20 22 21 21 21 21 19 15 12 12 14 15 16 17 19 23 24 22 20 20 21 22 22 22 21 16 14
12 11 11 13 14 14 13 13 12 12 12 12 12 12 13 16 19 22 22 20 19 19 18 16 12 12 12 12 12 15 17 20 24 25 23 21 19 19 20 20 20 18 16
12 12 12 15 16 16 15 14 12 11 10 11 12 13 14 17 18 19 21 21 20 17 15 15 14 13 12 9 8 10 14 17 23 26 26 23 20 19 19 19 19 17 15
13 13 14 15 15 15 14 12 10 9 8 9 10 11 14 16 17 17 18 18 18 16 14 13 13 13 11 9 8 9 11 14 19 23 25 24 23 21 20 19 17 15 14
13 13 13 14 13 12 12 9 8 7 7 7 7 8 10 12 13 15 15 15 14 14 14 13 12 12 11 9 10 12 13 14 16 19 21 23 25 24 21 20 18 16 15
11 11 12 13 11 11 11 10 7 6 5 5 4 5 6 7 9 12 12 12 11 11 12 12 11 12 12 10 12 16 17 16 17 18 20 22 25 24 21 21 20 17 16
8 9 10 11 10 10 10 10 8 6 4 3 3 4 4 4 7 8 9 9 9 8 9 10 11 12 13 12 12 15 16 16 18 19 19 19 19 20 20 23 23 20 16
6 6 6 9 10 10 8 8 7 5 3 2 3 4 3 3 5 6 6 6 7 7 7 9 10 11 12 11 11 12 12 13 16 18 17 14 12 13 18 23 24 22 19
4 4 5 8 11 9 7 5 4 3 3 3 4 4 3 3 4 5 5 5 5 6 7 9 10 10 10 10 10 9 9 9 11 14 14 11 8 9 14 19 23 24 23
4 4 5 8 9 8 6 4 2 2 3 5 6 5 4 4 5 5 6 5 5 6 7 9 9 10 11 11 9 8 7 6 7 10 10 9 6 6 9 14 19 24 26
6 5 6 8 8 6 5 4 3 3 4 5 6 6 5 4 5 6 7 6 6 6 8 9 10 10 11 11 9 7 5 4 4 5 6 6 5 4 6 9 14 20 24
6 5 6 7 7 5 4 4 3 3 4 4 4 5 4 4 5 7 7 7 7 8 9 9 9 10 11 10 7 5 3 2 1 1 2 3 3 3 4 5 9 13 16
5 5 5 4 4 4 4 4 3 3 3 3 3 4 3 3 5 7 7 8 7 7 8 7 7 8 8 7 5 4 3 1 0 0 0 1 1 2 3 4 5 7 8
5 5 4 3 3 3 3 3 2 3 3 3 3 3 3 3 5 7 7 7 7 6 4 4 4 5 5 5 5 6 5 2 0 0 0 0 0 1 2 3 3 3 3
4 4 3 3 3 3 3 2 2 3 3 3 3 3 3 4 4 6 7 7 6 5 3 2 2 3 3 4 5 7 7 3 0 0 0 0 0 0 1 2 1 1 1
3 3 3 3 3 3 3 2 1 2 3 3 3 3 3 3 3 3 5 6 5 5 3 1 1 2 3 3 4 5 5 2 1 0 0 0 0 0 0 0 0 0 0
1 2 2 2 2 3 3 2 1 1 2 3 3 3 3 2 2 2 3 3 3 3 2 1 0 1 2 3 3 3 2 2 2 1 0 0 0 0 0 0 0 0 0
0 1 1 1 1 1 2 1 0 0 1 1 2 3 2 1 1 1 1 1 1 1 1 0 0 0 1 2 3 2 1 2 3 1 0 0 0 0 0 0 0 0 0
0 0 0 0 0 0 0 0 0 0 0 0 1 2 1 0 0 0 0 1 2 1 0 0 1 1 1 2 3 3 2 3 4 3 1 0 0 0 0 0 0 0 0
1 0 0 0 0 0 0 0 0 0 0 0 0 0 0 0 0 0 0 1 2 1 0 1 2 2 3 3 3 2 2 3 4 3 1 0 0 0 0 0 0 0 0
2 1 0 0 0 0 0 0 0 0 0 0 0 0 0 0 0 0 0 1 1 0 0 1 2 3 2 2 1 1 2 3 4 3 1 0 0 0 0 0 0 0 0
3 2 1 0 0 0 0 0 0 0 0 0 0 0 0 0 0 0 0 0 0 0 0 1 1 1 1 0 0 1 3 3 3 3 2 1 0 0 0 0 0 0 0
2 1 1 0 0 0 0 0 0 0 0 0 0 0 0 0 0 0 0 1 1 0 0 0 0 0 0 0 1 2 4 4 4 4 3 1 0 0 1 1 0 0 0
1 0 0 0 0 0 0 0 0 0 0 0 0 0 0 0 0 0 0 1 1 1 0 0 0 0 0 0 1 3 4 5 5 5 4 3 1 0 1 1 0 0 0
0 0 0 0 0 0 0 0 0 0 0 0 0 0 0 0 0 0 0 1 2 2 1 0 0 0 0 0 1 2 4 4 4 4 5 4 1 0 1 1 0 0 0

GEFSMA_con_probscp_234.txt.gz
Probability
18 16 17 19 16 13 14 16 17 17 18 16 13 12 14 16 14 11 15 25 30 31 31 28 26 28 27 25 27 30 31 30 28 25 19 17 19 19 19 21 22 23 23
19 19 21 20 16 13 14 16 17 19 18 16 12 11 13 14 13 12 14 22 27 28 28 26 25 25 25 26 27 28 28 28 27 25 20 17 18 18 17 19 21 22 23
22 24 25 21 16 13 14 16 17 18 17 15 12 11 11 12 13 13 14 16 21 23 24 24 23 23 24 25 26 26 25 25 25 26 24 21 21 20 18 19 20 22 23
24 25 24 21 16 14 14 15 16 16 15 13 11 10 9 11 12 13 11 11 15 19 20 21 20 20 22 23 24 23 23 23 24 25 26 25 24 24 22 20 20 21 21
22 22 21 19 16 14 14 15 15 14 13 11 8 6 7 9 11 11 9 8 12 17 19 17 15 15 17 19 22 22 22 23 24 25 24 23 24 24 24 21 19 18 17
18 19 18 16 16 16 17 17 16 14 12 9 5 3 5 8 10 10 8 7 9 14 17 15 14 14 15 17 18 20 21 22 23 25 24 21 21 22 23 22 20 17 15
14 14 14 14 16 17 18 19 18 14 11 9 6 3 2 4 7 8 7 6 6 9 13 14 14 15 15 14 14 16 19 20 22 24 24 22 20 21 21 22 20 16 14
10 10 11 12 12 15 17 18 18 13 9 8 7 4 1 1 2 3 4 5 5 6 9 10 11 13 13 12 11 14 18 19 20 22 24 23 22 21 21 21 20 17 14
7 8 8 8 9 11 14 16 15 11 8 7 7 5 2 0 0 1 3 4 5 6 7 7 7 8 9 9 9 11 14 16 17 20 22 23 22 21 21 22 20 17 15
5 5 6 7 8 8 10 12 12 11 9 7 7 6 3 1 0 1 2 3 4 6 7 6 5 5 6 7 7 7 9 10 13 17 20 21 21 20 20 21 20 16 15
4 4 5 6 6 6 7 10 11 11 10 8 6 5 4 2 1 0 1 2 4 5 7 7 6 5 6 6 5 4 4 5 7 11 16 18 17 17 18 19 18 17 16
3 3 3 4 4 5 6 8 10 10 8 6 5 4 3 3 2 1 0 1 2 4 6 7 7 7 7 6 3 1 1 1 2 5 9 12 13 14 15 16 16 17 17
3 2 2 2 2 3 5 6 7 7 5 4 3 3 3 3 3 2 1 0 1 3 4 6 7 7 7 6 3 1 0 0 1 2 3 6 9 10 11 12 13 14 14
3 2 1 1 1 2 3 5 5 4 3 3 3 3 3 3 4 4 3 2 1 2 3 4 6 7 7 6 4 2 1 0 0 0 0 2 4 5 6 7 8 9 9
3 2 1 0 1 2 2 3 4 3 3 3 3 3 3 3 4 4 4 4 3 2 2 3 5 7 6 5 4 3 2 1 0 0 0 0 1 2 3 4 5 5 5
2 1 0 0 1 1 1 2 3 3 3 3 3 3 3 3 2 2 2 4 4 2 2 3 6 7 6 4 3 3 3 2 1 0 0 0 0 1 1 2 2 2 2
2 1 0 0 0 0 0 1 1 2 3 3 3 3 2 1 1 0 0 1 2 2 2 3 4 4 4 3 3 3 3 3 2 1 0 0 0 0 0 1 1 1 1
1 0 0 0 0 0 0 0 0 1 2 3 3 2 1 0 0 0 0 0 0 1 2 3 2 2 3 3 3 3 3 3 2 1 0 0 0 0 0 0 0 0 0
0 1 1 1 0 0 0 0 0 0 1 2 3 2 1 0 0 0 0 0 1 2 2 2 1 1 2 2 3 3 3 3 3 1 0 0 0 0 0 0 0 0 0
0 1 1 1 0 0 0 0 0 0 0 1 2 2 1 0 0 0 0 0 1 1 1 1 0 0 1 1 2 3 3 3 3 2 1 0 0 0 0 0 0 0 0
1 1 1 0 0 0 0 0 0 0 0 0 1 1 0 0 0 0 0 0 0 0 0 0 0 0 0 0 1 2 2 2 3 3 2 1 0 0 0 0 0 0 0
2 2 1 0 0 0 0 0 0 0 0 0 0 0 0 0 0 0 0 0 0 0 0 0 0 0 0 0 1 1 0 1 2 3 2 1 0 0 0 0 0 0 0
4 3 1 1 0 0 0 0 0 0 0 0 0 0 0 0 0 0 0 0 0 0 0 0 0 0 0 0 0 0 0 0 1 2 1 0 0 0 0 0 0 0 0
5 4 3 2 1 0 0 0 0 0 0 0 0 0 0 0 0 0 0 0 0 0 0 0 0 0 0 0 0 0 0 0 0 0 0 0 0 0 0 0 0 0 0
5 4 4 3 2 1 0 0 0 0 0 0 0 0 0 1 0 0 0 0 0 0 0 0 0 0 0 0 0 0 0 0 0 0 0 0 0 0 0 1 0 0 0
5 4 4 4 2 1 0 0 0 0 0 0 0 0 0 1 0 0 0 0 0 0 0 0 0 0 0 0 0 0 0 0 0 0 0 0 0 0 0 1 0 0 0

GEFSMA_con_probscp_240.txt.gz
Probability
3 3 3 3 3 3 3 4 5 5 4 3 3 2 1 1 2 2 3 7 11 14 18 19 19 19 20 21 25 30 32 31 30 28 25 21 20 21 21 20 21 21 20
3 3 3 3 3 3 3 4 5 5 4 3 2 1 0 0 1 1 3 5 7 12 16 18 18 19 20 19 21 26 29 29 27 24 22 20 18 18 19 19 20 21 20
3 3 3 3 3 3 3 3 4 4 4 3 2 0 0 0 0 1 1 2 4 8 13 16 17 18 18 17 17 20 24 26 25 23 22 20 17 17 18 19 19 19 20
3 3 3 3 3 3 3 3 4 4 4 3 2 1 1 1 1 1 1 1 2 4 8 11 13 15 14 14 15 17 19 21 22 23 24 21 17 16 19 19 18 16 16
3 3 3 3 3 3 3 3 3 4 3 3 3 3 2 2 2 1 0 0 0 1 2 5 9 12 13 13 15 16 17 18 19 23 26 23 19 17 18 18 15 11 10
2 2 2 3 3 3 3 3 3 3 3 3 3 3 2 2 2 1 0 0 0 0 0 2 5 8 10 13 15 16 15 15 18 23 28 27 23 19 18 16 13 10 8
1 1 1 2 3 3 3 3 3 3 3 3 3 1 1 1 1 0 0 0 0 0 0 1 2 4 6 9 13 14 14 14 18 24 28 29 26 22 19 17 14 12 11
2 1 1 1 1 2 3 3 3 3 3 3 2 1 0 0 0 0 0 0 0 0 0 0 1 3 4 5 8 11 13 15 18 22 26 27 25 22 20 18 15 14 14
3 3 2 1 0 1 1 2 3 3 2 2 1 0 0 0 0 0 0 0 0 0 0 0 1 2 3 3 5 9 11 14 16 19 22 24 24 22 21 19 17 16 16
3 3 3 2 1 0 0 1 1 2 3 2 1 0 0 0 0 0 0 0 0 0 0 0 0 1 2 3 4 6 8 9 12 15 19 22 23 23 22 20 18 18 17
3 3 3 2 1 0 0 0 0 1 2 2 1 0 0 0 0 0 0 0 0 0 0 0 0 0 1 2 4 5 4 5 7 10 14 18 20 21 21 20 18 17 18
3 3 2 1 0 0 0 0 0 0 1 1 0 0 0 0 0 0 0 0 0 0 0 0 0 0 0 1 2 3 3 4 5 6 8 11 14 16 18 19 16 14 15
2 2 1 0 0 0 0 0 0 0 0 0 0 0 0 0 0 0 0 0 0 0 0 0 0 0 0 0 1 1 2 3 4 4 4 5 8 10 14 16 14 11 10
1 1 0 0 0 0 0 0 0 0 0 0 0 0 0 0 0 0 0 0 0 0 0 0 0 0 0 0 0 0 1 1 2 3 3 3 4 6 9 11 10 8 6
0 0 0 0 0 0 0 0 0 0 0 0 0 0 0 0 0 0 0 0 0 0 0 0 0 0 0 0 0 0 0 0 1 1 2 2 2 3 4 5 5 5 4
0 0 0 0 0 0 0 0 0 0 0 0 0 0 0 0 0 0 0 0 0 0 0 0 0 0 0 1 0 0 0 0 0 0 0 0 1 1 1 1 2 3 3
0 0 0 0 0 0 0 0 0 0 0 0 0 0 0 0 1 0 0 0 0 0 0 0 0 0 0 0 0 0 0 0 0 0 0 0 0 0 0 0 1 2 2
0 0 0 0 0 0 0 0 0 0 0 0 0 0 0 0 0 0 0 0 0 0 0 0 0 0 0 0 0 0 0 0 0 0 0 0 0 0 0 0 0 1 1
0 0 0 0 0 0 0 0 0 0 0 0 0 0 0 0 0 0 0 0 0 0 0 0 0 0 0 0 0 0 0 0 0 0 0 0 0 0 0 0 0 0 0
0 0 0 0 0 0 0 0 0 0 0 0 0 0 0 0 0 0 0 0 0 0 0 0 0 0 0 0 0 0 0 0 0 0 0 0 0 0 0 0 0 0 0
0 0 0 0 0 0 0 0 0 0 0 0 0 0 0 0 0 0 0 0 0 0 0 0 0 0 0 0 0 0 0 0 0 0 0 0 0 0 0 0 0 0 0
0 0 0 0 0 0 0 0 0 0 0 0 0 0 0 0 0 0 0 0 0 0 0 0 0 0 0 0 0 0 0 0 0 0 0 0 0 0 0 0 0 0 0
0 0 0 0 0 0 0 0 0 0 0 0 0 0 0 0 0 0 0 0 0 0 0 0 0 0 0 0 0 0 0 0 0 0 0 0 0 0 0 0 0 0 0
0 0 0 0 0 0 0 0 0 0 0 0 0 0 0 0 0 0 0 0 0 0 0 0 0 0 0 0 0 0 0 0 0 0 0 0 0 0 0 0 0 0 0
0 0 0 0 0 0 0 0 0 0 0 0 0 0 0 0 0 0 0 0 0 0 0 0 0 0 0 0 0 0 0 0 0 0 0 0 0 0 0 0 0 0 0
0 0 0 0 0 0 0 0 0 0 0 0 0 0 0 0 0 0 0 0 0 0 0 0 0 0 0 0 0 0 0 0 0 0 0 0 0 0 0 0 0 0 0